Temperature
19 20 20 19 22 23 23 24 23 24 24 24 23 23 25 26 26 25 23 23 22 21 20 18 16 15 15 15 14 14 14 13 13 13 11 11 12 12 12 12 12 12 12 12 12 11 11 11 12
19 20 20 21 22 22 23 23 23 23 23 22 22 23 24 26 24 23 23 23 22 21 20 18 16 15 15 15 14 14 13 13 13 12 11 12 12 12 12 12 12 12 13 13 13 12 12 12 11
18 19 20 22 22 22 23 23 23 22 22 21 23 24 25 25 23 22 22 23 22 21 19 18 17 15 15 15 14 14 13 13 13 13 12 12 12 12 12 12 12 12 13 13 13 13 12 11 11
18 19 20 22 21 22 22 22 22 22 23 22 22 25 24 23 22 22 23 22 21 20 19 18 16 15 15 14 14 14 13 13 13 13 12 12 12 12 12 12 12 12 12 13 13 13 12 12 12
18 20 21 21 21 22 22 21 21 22 23 22 22 24 25 22 23 23 23 22 21 19 18 17 17 15 15 14 14 13 13 13 13 12 12 12 13 13 12 12 12 12 12 12 12 12 11 11 11
19 20 21 21 21 21 22 20 20 22 22 22 22 24 24 21 21 22 22 22 21 19 18 17 17 15 15 14 14 13 13 13 13 13 12 12 13 13 12 12 12 11 11 11 11 11 11 11 10
19 20 20 20 20 21 21 20 21 21 22 22 21 23 24 21 21 21 21 22 21 20 18 17 16 16 15 14 14 13 13 13 13 13 13 12 12 12 12 12 11 11 11 12 11 11 11 10 10
18 20 19 20 20 21 21 20 20 20 21 21 20 23 23 20 21 21 21 21 21 21 19 17 16 15 15 14 14 14 13 13 13 13 13 13 13 12 12 12 12 12 12 13 13 12 12 11 11
16 19 19 20 20 21 20 20 20 19 20 20 21 21 21 20 21 20 20 20 21 21 20 19 17 16 15 15 15 15 14 14 14 14 14 14 13 12 12 13 13 13 14 14 14 14 13 13 13
17 18 19 20 20 21 20 20 19 20 21 22 21 21 20 20 20 19 19 19 19 20 20 20 19 17 16 16 16 15 15 14 14 13 13 13 13 13 13 14 14 14 14 14 14 14 14 13 13
17 18 20 19 19 19 19 19 19 19 21 21 21 21 20 20 20 20 20 19 19 20 20 20 19 18 17 17 16 16 15 15 14 14 14 14 14 14 14 14 14 14 14 14 14 14 13 13 12
18 18 18 19 18 18 18 19 19 19 19 20 20 19 19 20 20 20 20 20 20 20 20 19 19 19 18 17 17 16 16 15 15 15 14 14 14 14 14 14 14 14 13 13 13 13 12 12 12
17 18 17 17 17 17 17 18 19 19 19 20 19 18 19 19 20 20 21 21 21 21 20 20 20 19 18 18 17 17 16 15 15 15 14 14 14 14 13 14 13 13 13 13 13 13 12 12 12
17 17 18 18 18 17 18 19 19 19 20 19 19 18 18 19 20 20 21 21 21 21 21 20 20 20 19 18 18 17 16 15 15 14 14 14 14 14 13 13 13 13 13 13 13 13 13 13 13
17 17 18 18 18 18 18 19 20 20 19 19 19 18 17 18 19 19 20 21 21 21 21 21 21 20 20 19 18 17 16 15 15 14 14 14 14 14 13 14 14 13 13 13 13 13 13 13 12
16 16 16 18 19 18 18 19 21 20 19 19 18 17 16 16 17 18 19 20 20 20 20 20 20 20 19 18 18 17 16 15 15 15 14 14 14 14 14 14 14 13 13 13 13 12 12 12 11
16 16 17 18 19 19 18 19 21 19 19 19 19 17 16 15 16 17 18 19 19 19 19 19 19 19 19 18 17 17 16 16 15 15 14 14 14 14 14 13 13 12 12 12 12 12 11 11 11
16 17 17 18 18 18 18 19 20 20 19 19 18 16 15 15 15 17 17 17 18 18 18 18 18 18 18 17 17 16 16 15 15 14 14 14 13 13 13 12 12 12 12 12 11 11 11 10 10
17 17 17 18 18 17 18 19 20 20 19 19 18 16 15 14 14 15 16 16 17 17 18 18 18 17 17 17 16 15 15 14 13 13 13 13 12 12 12 12 12 12 11 11 11 10 10 10 9
17 17 17 18 17 17 18 18 20 21 19 18 17 16 15 14 13 14 15 16 17 17 17 17 17 17 16 16 15 15 14 13 12 12 12 12 12 12 12 11 11 11 11 11 10 10 9 9 8
16 17 17 17 17 17 17 19 20 19 17 15 16 15 14 14 13 13 14 15 16 16 17 17 16 16 15 15 14 14 13 12 12 12 11 11 11 11 11 11 11 10 10 9 9 8 8 7 7
15 17 17 16 16 17 17 17 20 20 18 16 15 14 14 13 12 12 13 14 15 15 15 15 15 15 14 13 13 13 12 12 11 11 11 11 11 11 10 10 10 9 9 8 8 7 7 6 5
16 16 16 15 15 16 17 17 20 20 19 17 15 14 13 12 12 12 13 14 14 14 14 14 14 14 13 12 12 12 12 11 10 10 10 10 10 10 10 9 9 8 7 7 7 6 6 5 5
15 15 14 14 15 15 17 17 19 21 20 18 16 14 12 11 11 11 12 13 13 13 13 13 13 13 12 12 12 11 11 10 10 10 10 10 10 9 9 8 7 7 7 6 6 6 5 5 4
15 14 13 13 14 16 17 17 19 20 18 18 16 14 12 11 10 10 11 12 12 12 12 12 12 12 11 11 11 11 10 10 10 10 10 9 9 8 8 7 7 6 6 5 5 5 5 4 4
14 15 14 15 16 17 15 17 20 18 16 15 15 14 12 11 10 10 11 11 12 12 12 11 11 11 11 11 10 10 10 10 9 9 9 8 8 7 6 6 5 5 5 4 4 4 4 3 2
14 14 15 16 16 17 18 18 19 16 16 15 15 14 12 11 10 10 10 11 11 11 11 10 10 10 10 10 9 9 9 9 9 8 8 7 6 6 5 5 4 4 4 4 3 3 2 2 1
14 15 14 14 15 17 18 18 20 19 18 15 15 13 12 11 10 9 10 10 10 10 10 10 10 10 9 9 9 8 8 8 8 7 6 5 5 4 4 4 4 3 3 3 2 2 1 0 -0
13 14 15 15 16 17 18 19 18 18 17 16 15 14 12 11 10 9 9 10 10 10 9 9 9 9 8 8 7 7 7 7 6 5 5 4 4 3 3 3 2 2 2 1 1 0 -0 -1 -1
16 15 15 15 15 16 18 19 17 16 15 14 14 13 12 11 10 9 9 10 9 9 9 8 8 8 7 7 7 6 6 5 5 4 4 3 3 2 2 2 1 1 1 0 -0 -1 -2 -2 -2
Wind_Speed
12 7 3 3 4 6 9 4 1 1 2 5 8 8 7 6 4 4 3 6 4 7 12 15 14 13 12 14 13 11 8 6 5 4 3 3 4 3 2 2 2 2 3 5 6 9 7 5 4
9 5 3 3 5 7 6 3 2 4 8 10 7 5 5 4 2 2 3 8 5 8 12 14 14 13 13 14 13 11 9 7 5 5 4 5 5 4 3 2 1 1 3 4 6 6 8 7 7
5 3 3 3 4 6 2 1 5 9 11 5 4 4 4 2 1 2 3 9 6 8 11 12 13 13 14 13 12 11 9 7 6 5 6 6 6 6 4 2 0 2 3 4 5 6 6 7 7
4 3 2 4 4 4 5 6 9 11 7 4 5 5 3 2 3 3 4 8 6 8 10 11 12 12 12 12 12 10 8 7 6 6 7 7 7 7 5 3 1 1 3 4 5 6 6 7 8
3 4 5 6 5 4 5 6 7 9 9 5 7 6 1 4 3 2 4 8 6 7 9 10 12 10 11 12 11 9 7 6 6 6 7 8 8 7 6 4 1 2 4 5 6 7 8 8 9
4 4 8 9 6 5 5 3 5 7 7 6 7 6 2 5 4 2 4 7 6 7 8 9 11 8 10 11 10 9 8 7 7 7 7 7 6 5 5 4 2 4 5 7 7 8 9 9 10
6 6 11 10 8 6 3 2 5 9 9 6 8 5 0 8 7 1 4 6 5 6 7 7 9 11 11 11 11 10 9 8 8 7 7 5 2 2 1 2 4 6 7 8 9 11 11 11 11
5 6 11 10 9 6 2 3 6 8 9 7 4 4 3 10 6 1 3 5 6 6 7 7 8 8 10 11 12 11 11 10 9 8 7 4 3 3 2 4 4 6 9 9 11 12 13 13 12
4 10 14 12 8 5 2 5 7 7 8 7 5 5 6 8 3 2 4 5 7 7 8 8 8 9 9 9 9 12 13 12 11 10 9 7 8 8 6 6 4 7 10 11 12 13 14 14 14
9 15 18 10 8 6 6 9 10 8 11 10 7 7 7 8 6 5 6 7 9 10 10 9 10 10 10 8 9 9 10 9 10 9 7 7 7 7 8 5 7 10 11 13 14 15 15 15 12
11 17 15 12 10 8 9 11 8 10 12 10 12 15 14 11 9 8 7 7 9 9 10 10 11 10 10 8 8 7 7 7 8 9 8 7 7 7 7 7 7 10 10 11 10 11 11 11 11
15 16 13 11 7 7 10 11 12 14 16 18 18 15 14 13 11 10 8 6 7 9 10 10 11 11 11 10 8 7 6 6 6 7 8 6 5 6 6 6 8 8 7 8 8 8 11 12 13
21 17 14 13 11 12 13 16 17 20 22 20 17 14 13 12 11 8 5 4 5 7 8 9 11 12 11 11 9 7 7 7 7 6 7 7 6 6 6 6 7 8 8 8 8 9 11 12 12
18 18 17 16 15 13 15 19 17 19 18 15 13 11 8 7 7 5 3 3 4 5 6 7 10 12 12 11 9 8 7 6 6 6 6 6 6 6 6 7 7 8 8 8 8 10 11 11 11
17 16 17 17 15 11 10 17 19 17 13 11 7 4 1 3 3 4 4 3 3 4 5 5 7 10 11 11 9 6 5 5 5 5 5 6 6 6 6 7 7 7 8 9 9 10 10 10 11
19 19 20 18 15 12 10 19 13 6 6 7 3 2 1 3 4 5 4 4 4 4 4 4 2 5 7 6 4 3 2 2 3 3 4 5 5 6 6 6 7 8 8 7 8 9 10 10 11
16 19 20 16 15 13 14 16 9 6 9 10 6 3 3 4 5 6 6 5 6 6 7 7 6 5 6 6 5 4 3 3 3 3 4 5 6 5 4 5 6 8 6 6 7 8 9 11 12
21 21 18 16 9 12 14 16 15 13 11 12 7 6 6 6 6 6 6 6 7 9 10 11 11 10 10 9 9 8 9 9 9 9 11 12 11 11 8 7 9 9 7 8 9 10 10 10 11
18 19 18 15 8 8 13 16 17 15 11 11 9 10 9 8 7 7 8 8 10 12 13 13 13 11 10 9 9 10 10 10 11 12 15 15 15 14 11 8 9 9 8 9 10 9 12 11 12
17 18 17 10 5 6 12 17 17 13 9 8 12 13 13 11 10 9 10 11 12 14 14 14 14 13 12 11 10 10 11 10 10 10 13 14 14 13 10 10 8 9 8 9 10 10 9 9 11
20 18 16 9 4 5 7 12 10 5 3 4 9 13 13 13 13 12 12 12 13 14 14 14 15 15 14 14 11 10 9 8 8 9 9 11 13 13 11 10 9 9 8 8 10 10 10 11 11
20 15 11 6 4 4 2 6 8 7 6 7 11 13 14 13 13 13 13 13 13 12 13 15 16 16 14 13 12 12 10 9 7 7 7 9 11 12 12 11 10 9 8 9 9 10 9 10 10
14 12 8 3 4 7 9 8 8 6 8 11 14 15 14 13 13 13 12 12 12 11 12 14 16 16 14 14 13 13 11 8 6 6 7 7 8 10 11 10 9 9 8 9 10 10 10 9 10
12 12 7 2 3 8 10 9 7 4 3 9 16 16 16 14 13 13 12 12 12 11 11 12 15 14 13 13 13 12 11 9 8 8 7 6 6 6 10 9 9 9 8 9 10 10 11 10 11
14 12 6 6 7 7 5 8 8 1 1 6 17 19 17 16 15 14 14 13 12 11 11 12 13 13 12 12 12 11 10 8 8 7 7 7 6 7 10 9 9 9 9 10 10 10 10 10 11
16 15 8 7 8 5 6 8 4 3 1 3 13 18 17 17 15 15 14 13 12 11 11 11 12 12 11 10 10 9 8 6 6 7 6 7 6 7 9 9 9 10 10 10 10 9 10 10 11
13 13 5 1 2 4 6 5 5 3 2 4 13 19 19 17 16 15 13 12 11 11 10 11 11 11 9 9 8 8 8 7 6 6 6 6 6 6 9 9 10 10 10 11 12 10 11 12 12
7 11 7 5 5 6 5 5 3 4 1 4 15 20 20 17 16 15 13 12 11 10 10 10 10 10 8 7 7 6 6 6 5 5 6 6 7 8 9 10 11 11 11 12 12 11 11 13 14
11 12 9 8 5 5 5 3 1 4 5 5 13 19 20 18 17 15 13 12 11 11 10 9 9 8 7 6 6 6 5 5 4 5 6 6 7 9 10 10 11 11 12 13 13 13 14 15 16
15 14 14 10 8 6 4 2 2 4 5 5 12 17 17 17 15 14 13 12 11 11 10 9 8 7 6 5 5 5 4 4 4 5 6 7 8 9 9 10 11 12 12 13 14 15 15 17 18
Wind_Direction
324 327 307 276 245 232 230 205 215 326 321 320 305 285 281 293 320 4 66 140 127 150 165 171 181 178 176 166 162 163 170 180 194 198 209 212 218 214 185 130 96 53 35 21 5 8 14 27 6
324 317 296 279 254 234 217 205 228 321 319 315 290 248 250 258 296 25 120 154 146 158 166 175 169 174 170 167 165 169 179 192 211 225 236 238 232 226 224 202 138 25 18 11 359 358 8 6 353
310 324 316 274 252 251 225 70 329 324 317 298 281 245 269 306 66 58 92 156 160 164 170 168 166 173 173 174 173 177 186 200 218 239 261 273 243 227 224 226 164 14 3 355 350 343 340 338 335
303 281 270 265 260 270 284 314 329 326 331 305 290 276 232 22 35 57 115 160 164 166 173 170 178 182 185 183 178 181 192 210 230 246 262 277 261 233 216 201 235 349 347 338 332 330 324 316 310
288 273 257 255 265 273 281 309 320 324 330 331 311 294 300 52 21 64 138 166 171 167 174 173 184 197 198 187 180 183 196 214 237 253 263 281 280 249 224 200 222 325 328 324 316 308 305 304 301
264 252 253 256 260 282 286 291 307 321 330 329 330 301 38 43 10 66 143 163 170 168 176 178 184 208 199 189 185 189 201 218 236 253 269 294 310 280 239 200 234 293 310 312 304 294 291 291 292
251 247 254 256 267 279 267 295 316 324 319 330 331 292 130 49 23 59 149 152 158 168 181 191 194 200 200 200 197 199 205 218 232 247 264 290 344 18 344 228 261 283 301 309 305 296 290 287 289
251 242 245 244 252 269 255 292 311 310 309 323 306 293 5 9 9 135 160 161 164 175 193 203 208 210 207 208 205 208 211 218 228 241 255 282 238 215 213 241 264 286 294 297 299 297 291 286 283
231 235 239 238 243 253 231 298 313 294 283 291 279 286 333 343 355 209 190 189 190 193 201 210 218 218 220 222 209 212 217 220 227 233 230 252 256 256 246 267 269 273 278 281 282 284 287 288 275
218 234 237 241 242 254 278 297 306 295 284 281 266 272 309 317 314 286 251 225 210 206 205 208 218 221 223 224 225 226 227 228 233 246 248 258 265 270 278 275 254 261 265 269 268 272 277 274 273
218 236 240 238 245 265 280 288 286 284 284 282 296 305 317 313 304 296 278 247 228 220 214 213 216 221 223 222 227 227 229 234 238 245 253 260 269 269 267 268 258 258 259 271 271 273 273 275 277
225 235 236 241 241 253 271 282 282 273 273 284 290 298 299 299 302 301 292 258 231 228 228 225 218 219 222 225 224 226 228 232 237 239 246 253 260 265 270 271 278 280 279 284 286 285 286 282 279
224 229 232 244 252 263 271 271 280 278 276 281 286 283 283 292 299 299 290 260 241 240 240 234 226 222 219 221 226 227 231 237 239 243 246 248 257 268 276 280 283 284 287 287 289 290 291 289 286
223 232 240 247 255 261 268 275 273 271 283 288 281 275 289 305 315 309 309 290 269 263 259 249 234 226 219 217 220 224 234 239 252 255 260 261 267 277 287 288 287 287 289 292 292 292 292 288 287
224 229 238 241 246 251 265 273 261 268 286 283 275 268 314 5 11 6 356 339 328 311 298 279 254 232 221 219 223 232 241 255 262 271 278 274 274 281 284 285 290 297 302 303 301 302 298 295 294
215 227 237 237 236 238 241 263 268 278 277 281 258 217 124 67 47 34 19 15 9 3 3 1 291 215 205 202 202 211 241 266 277 291 294 296 299 297 299 304 315 325 324 320 317 313 308 305 303
204 217 224 230 230 232 232 260 269 250 273 273 245 194 146 107 72 50 41 41 37 35 40 49 65 107 130 134 125 112 95 71 47 28 15 14 9 360 350 350 350 348 346 343 336 325 321 315 312
198 209 214 218 209 213 228 253 275 282 266 259 226 183 154 119 81 63 58 59 59 58 61 67 75 87 104 109 105 95 82 73 65 59 56 55 53 48 44 39 28 19 16 7 355 343 333 322 319
203 208 212 217 204 225 248 266 279 284 262 244 209 180 158 129 102 88 81 77 75 68 65 67 71 80 93 100 101 96 86 79 70 62 58 56 54 51 46 38 31 21 16 6 356 347 335 329 331
205 206 211 209 194 250 270 277 277 276 256 229 197 178 160 142 124 103 92 82 76 73 72 72 71 73 77 83 87 92 93 79 73 66 57 52 49 45 39 32 24 16 4 1 356 351 337 330 332
204 206 204 196 192 227 287 275 250 212 192 193 185 171 159 149 136 121 104 92 85 78 77 80 79 80 84 92 99 102 95 87 67 56 52 46 43 39 35 27 18 10 4 357 352 350 342 332 329
200 201 193 188 245 243 288 287 254 228 210 181 173 168 160 150 140 129 118 103 93 88 86 85 84 82 82 86 89 87 81 75 61 50 47 46 40 35 27 21 15 8 2 356 350 348 340 333 330
195 179 191 207 259 273 249 261 268 230 233 198 179 170 163 157 147 136 124 113 104 97 91 89 85 80 78 79 80 82 80 78 68 56 45 38 35 31 22 14 9 5 359 354 347 342 341 335 330
146 138 119 114 237 253 235 233 270 233 213 179 178 173 166 159 151 140 130 122 114 106 97 94 89 84 81 80 79 80 82 78 68 52 38 28 24 20 18 8 7 4 359 351 345 338 337 333 329
171 160 159 183 208 233 194 224 252 283 159 184 181 176 170 164 160 153 145 136 128 118 108 104 99 94 89 87 84 84 84 77 62 44 32 21 15 12 8 5 1 359 353 347 342 333 330 326 324
183 183 187 192 199 192 189 231 249 64 118 204 185 174 170 169 167 161 152 144 136 127 121 116 108 103 98 93 90 85 78 69 57 42 30 21 10 4 358 354 351 349 345 340 336 324 324 321 318
176 197 198 189 183 216 210 239 267 141 167 188 181 175 177 175 171 164 156 150 142 135 130 125 117 112 106 100 95 83 72 64 54 40 30 19 8 353 350 347 344 342 339 335 330 323 321 320 316
185 164 161 190 201 217 218 232 223 171 245 183 184 182 179 174 171 166 161 153 144 136 131 127 121 117 111 102 90 81 68 57 46 35 27 12 358 350 345 344 339 336 332 330 325 319 318 316 313
166 177 179 188 239 231 209 181 130 283 292 228 193 184 178 176 174 170 162 153 145 141 140 136 131 124 114 102 91 79 64 47 35 28 16 1 351 346 342 337 330 328 327 327 322 319 317 313 311
190 189 182 186 203 223 232 170 103 293 293 229 187 179 176 176 173 168 160 154 153 152 150 146 141 131 118 105 89 73 57 35 23 18 6 353 346 340 334 327 323 324 325 324 319 317 316 313 311
Height
1539 1537 1534 1534 1532 1528 1524 1520 1519 1519 1517 1517 1517 1515 1512 1510 1509 1514 1511 1508 1507 1506 1505 1505 1507 1509 1510 1511 1512 1513 1513 1513 1512 1511 1511 1512 1512 1512 1512 1511 1510 1509 1508 1507 1507 1507 1507 1507 1507
1539 1537 1536 1534 1530 1529 1524 1520 1520 1519 1519 1518 1515 1514 1512 1509 1510 1511 1509 1507 1506 1505 1505 1505 1506 1508 1509 1511 1512 1513 1512 1512 1511 1511 1511 1512 1512 1512 1511 1511 1510 1509 1508 1507 1506 1506 1505 1505 1505
1538 1537 1537 1532 1530 1528 1524 1522 1521 1521 1519 1517 1514 1512 1511 1510 1510 1510 1508 1507 1506 1506 1505 1505 1506 1507 1509 1510 1511 1512 1512 1511 1511 1510 1511 1511 1512 1512 1511 1510 1510 1509 1507 1506 1505 1504 1504 1504 1504
1539 1538 1536 1531 1531 1527 1525 1523 1523 1521 1518 1517 1514 1511 1510 1510 1509 1508 1508 1507 1507 1507 1506 1506 1507 1508 1509 1510 1510 1511 1511 1510 1510 1510 1510 1510 1511 1511 1511 1510 1509 1508 1506 1505 1504 1504 1503 1503 1503
1539 1536 1532 1531 1529 1525 1524 1525 1524 1521 1518 1516 1515 1510 1509 1509 1508 1507 1507 1507 1507 1507 1507 1507 1507 1508 1509 1509 1510 1510 1510 1509 1509 1509 1510 1510 1510 1510 1510 1509 1509 1507 1506 1504 1503 1503 1502 1502 1501
1538 1534 1531 1529 1526 1524 1523 1525 1524 1520 1517 1516 1514 1511 1510 1510 1508 1507 1507 1507 1507 1507 1508 1508 1508 1509 1509 1510 1510 1509 1509 1509 1508 1508 1509 1509 1509 1510 1510 1509 1508 1507 1505 1504 1503 1502 1502 1501 1500
1537 1532 1529 1527 1526 1524 1523 1523 1522 1519 1516 1515 1514 1512 1510 1511 1508 1506 1506 1506 1507 1507 1507 1508 1508 1509 1509 1509 1509 1509 1509 1508 1508 1507 1508 1508 1508 1509 1509 1508 1507 1506 1505 1503 1502 1501 1501 1500 1499
1535 1531 1527 1526 1525 1523 1522 1522 1521 1520 1516 1516 1514 1511 1509 1511 1508 1506 1505 1505 1506 1506 1507 1507 1508 1509 1509 1509 1508 1508 1507 1507 1507 1507 1507 1506 1506 1507 1507 1507 1506 1505 1503 1502 1501 1500 1500 1499 1497
1533 1531 1525 1523 1523 1520 1521 1521 1520 1519 1517 1514 1513 1512 1511 1509 1507 1505 1504 1504 1505 1506 1506 1506 1507 1508 1508 1508 1507 1506 1506 1506 1505 1505 1505 1505 1506 1507 1506 1505 1504 1503 1502 1501 1500 1499 1498 1496 1495
1530 1525 1519 1519 1520 1519 1520 1520 1520 1517 1514 1511 1511 1510 1509 1507 1505 1504 1504 1503 1503 1504 1504 1504 1505 1506 1506 1506 1506 1506 1506 1505 1505 1506 1506 1506 1506 1505 1504 1503 1503 1502 1500 1499 1498 1497 1495 1494 1493
1524 1519 1517 1520 1521 1520 1519 1518 1518 1516 1510 1509 1508 1507 1506 1505 1504 1503 1502 1501 1500 1501 1501 1502 1502 1503 1504 1504 1505 1505 1505 1505 1504 1504 1504 1504 1504 1503 1503 1502 1501 1500 1498 1497 1496 1494 1493 1492 1490
1519 1517 1518 1518 1520 1520 1518 1516 1514 1512 1509 1507 1506 1504 1502 1502 1501 1500 1499 1498 1497 1497 1498 1498 1499 1500 1501 1502 1503 1503 1503 1503 1503 1503 1503 1503 1502 1502 1501 1500 1499 1498 1497 1495 1493 1491 1490 1488 1486
1515 1514 1517 1517 1518 1518 1517 1514 1511 1506 1504 1503 1502 1500 1499 1498 1497 1496 1495 1495 1494 1494 1495 1495 1496 1496 1498 1499 1500 1501 1501 1502 1502 1502 1501 1501 1500 1500 1499 1498 1497 1496 1494 1492 1490 1488 1487 1485 1482
1510 1513 1513 1513 1514 1515 1514 1508 1507 1500 1500 1498 1497 1496 1495 1493 1492 1491 1491 1491 1491 1491 1491 1492 1492 1493 1494 1496 1497 1498 1499 1500 1500 1500 1499 1499 1498 1497 1496 1496 1495 1494 1492 1490 1488 1486 1483 1481 1478
1509 1511 1510 1509 1511 1510 1511 1503 1498 1497 1497 1495 1493 1492 1490 1488 1487 1487 1487 1488 1488 1488 1488 1488 1489 1489 1491 1492 1494 1495 1496 1497 1497 1497 1497 1496 1495 1495 1494 1493 1492 1491 1489 1487 1485 1482 1480 1476 1473
1505 1508 1507 1502 1505 1506 1510 1498 1492 1494 1494 1492 1491 1490 1488 1486 1485 1484 1485 1485 1486 1486 1485 1485 1485 1486 1487 1489 1491 1492 1493 1494 1495 1495 1495 1494 1494 1493 1492 1491 1489 1488 1486 1483 1481 1478 1476 1472 1469
1498 1500 1499 1498 1499 1500 1501 1493 1489 1491 1491 1489 1488 1488 1487 1485 1484 1484 1484 1484 1484 1484 1484 1484 1483 1483 1484 1486 1488 1490 1491 1492 1493 1493 1493 1492 1491 1490 1489 1488 1487 1485 1483 1481 1478 1476 1473 1469 1465
1489 1490 1492 1494 1493 1496 1495 1489 1486 1486 1487 1485 1485 1485 1485 1484 1484 1483 1483 1483 1484 1484 1484 1484 1483 1484 1485 1486 1487 1489 1490 1491 1491 1491 1491 1490 1489 1489 1488 1486 1485 1483 1481 1479 1476 1473 1470 1467 1462
1480 1484 1488 1489 1491 1494 1489 1485 1481 1480 1481 1480 1481 1482 1483 1483 1483 1483 1483 1484 1485 1485 1485 1485 1485 1486 1487 1487 1488 1489 1489 1490 1490 1490 1490 1490 1489 1488 1487 1486 1484 1482 1480 1477 1474 1470 1467 1463 1459
1479 1483 1485 1487 1492 1491 1486 1481 1475 1474 1475 1475 1476 1478 1480 1482 1483 1484 1485 1485 1486 1486 1486 1486 1487 1488 1489 1489 1490 1490 1490 1490 1491 1491 1491 1491 1490 1489 1487 1485 1483 1480 1478 1474 1470 1466 1462 1458 1455
1479 1480 1481 1485 1489 1488 1487 1475 1469 1470 1474 1474 1474 1476 1478 1481 1483 1484 1485 1486 1487 1487 1487 1488 1488 1489 1490 1491 1492 1492 1492 1492 1493 1493 1493 1492 1490 1488 1486 1484 1481 1478 1474 1470 1466 1462 1458 1455 1452
1476 1476 1480 1486 1488 1485 1487 1482 1466 1463 1468 1472 1473 1475 1477 1480 1482 1484 1485 1486 1487 1487 1488 1489 1490 1490 1492 1493 1494 1494 1494 1494 1494 1494 1493 1492 1490 1487 1484 1481 1478 1474 1470 1467 1463 1460 1456 1452 1448
1470 1477 1482 1486 1489 1489 1482 1482 1462 1459 1461 1465 1469 1472 1476 1479 1482 1483 1484 1485 1487 1488 1489 1490 1491 1492 1493 1495 1495 1495 1495 1495 1495 1494 1493 1490 1488 1485 1481 1478 1474 1471 1467 1464 1460 1457 1453 1449 1445
1472 1478 1485 1489 1491 1490 1475 1476 1461 1450 1453 1458 1466 1470 1474 1478 1481 1483 1484 1485 1487 1489 1490 1491 1492 1493 1494 1495 1495 1495 1495 1495 1495 1493 1491 1488 1485 1482 1478 1474 1471 1468 1465 1461 1457 1454 1450 1446 1442
1469 1477 1492 1495 1493 1479 1473 1471 1456 1448 1454 1457 1462 1467 1472 1476 1480 1482 1483 1485 1487 1489 1490 1492 1492 1493 1494 1494 1495 1495 1495 1494 1493 1491 1489 1486 1483 1479 1476 1472 1469 1465 1462 1458 1454 1450 1446 1442 1438
1465 1470 1478 1478 1475 1468 1476 1468 1449 1453 1456 1458 1460 1466 1471 1475 1479 1481 1483 1485 1487 1489 1490 1492 1492 1493 1493 1494 1494 1493 1493 1492 1490 1489 1486 1483 1480 1477 1473 1470 1466 1462 1459 1455 1451 1446 1442 1437 1433
1465 1468 1468 1469 1470 1467 1460 1455 1448 1454 1454 1456 1459 1464 1469 1473 1477 1480 1482 1484 1486 1489 1490 1492 1492 1493 1493 1493 1493 1492 1491 1490 1488 1486 1483 1480 1477 1474 1470 1467 1463 1459 1455 1451 1446 1442 1437 1432 1428
1460 1462 1472 1476 1472 1465 1457 1453 1445 1446 1448 1453 1456 1461 1466 1472 1476 1479 1481 1483 1486 1488 1490 1491 1492 1492 1492 1492 1491 1490 1489 1488 1486 1483 1480 1478 1474 1471 1467 1463 1459 1455 1451 1446 1441 1436 1431 1427 1422
1461 1464 1463 1467 1464 1459 1456 1449 1443 1445 1447 1449 1453 1458 1464 1469 1474 1477 1480 1482 1484 1487 1488 1490 1490 1491 1491 1490 1490 1488 1487 1485 1483 1480 1478 1475 1471 1467 1464 1459 1455 1451 1446 1441 1436 1431 1425 1420 1415
1448 1451 1455 1463 1464 1457 1450 1448 1445 1446 1447 1448 1451 1457 1463 1468 1472 1475 1478 1480 1483 1485 1487 1488 1489 1490 1490 1489 1488 1486 1484 1482 1480 1477 1474 1471 1468 1464 1460 1455 1451 1446 1441 1436 1430 1424 1419 1414 1408